Flag Weather past 2 weeks in Catania, Italy

Now
63 °F

Scattered clouds.


Feels Like: 63 °F
Forecast: 50 / 64 °F
Wind: 9 mph from Northeast

Location: Catania / Fontanarossa

Current Time: Nov 22, 2014 at 4:57:49 PM

Latest Report: Nov 22, 2014 at 4:20 PM


Visibility: N/A

Pressure: 30.21 "Hg

Humidity: 83%

Dew point: 57 °F

Location of CataniaLocation

Historic Weather in Catania — Graph

°F

Catania temperature yesterday

Maximum temperature yesterday: 68 °F (at 12:50 PM)
Minimum temperature yesterday: 46 °F (at 4:20 AM)
Average temperature yesterday: 56 °F

Past Weeks' High & Low Weather Summary

 TemperatureHumidityPressure
High72 °F (Nov 12, 1:20 PM)100% (Nov 10, 4:50 AM)30.24 "Hg (Nov 10, 4:50 AM)
Low45 °F (Nov 20, 2:50 AM)38% (Nov 19, 12:50 PM)29.42 "Hg (Nov 8, 5:50 AM)
Average60 °F80%29.96 "Hg
* Reported Nov 7 3:20 PM — Nov 22 3:20 PM, Catania, Weather by CustomWeather, © 2014

Note: Actual official high and low records may vary slightly from our data, if they occured in-between our weather recording intervals... More about our weather records

Advertising

Catania weather history for previous 24 hours

 ConditionsComfort  
Time TempWeatherWind HumidityBarometerVisibility
3:20 PM
Nov 22
63 °FPassing clouds.10 mph77%30.21 "HgN/A
2:50 PM64 °FSunny.9 mph73%30.21 "Hg10 mi
2:20 PM64 °FSunny.8 mph73%30.18 "Hg10 mi
1:50 PM64 °FSunny.8 mph73%30.18 "Hg10 mi
1:20 PM64 °FPassing clouds.6 mph68%30.18 "HgN/A
12:50 PM64 °FPassing clouds.5 mph68%30.21 "HgN/A
12:20 PM64 °FPassing clouds.8 mph73%30.21 "HgN/A
11:50 AM63 °FScattered clouds.6 mph73%30.21 "Hg5 mi
11:20 AM64 °FScattered clouds.2 mph73%30.24 "Hg5 mi
10:50 AM63 °FScattered clouds.2 mph73%30.24 "Hg5 mi
10:20 AM63 °FScattered clouds.2 mph73%30.24 "Hg5 mi
9:50 AM61 °FPassing clouds.3 mph77%30.24 "HgN/A
9:20 AM61 °FPassing clouds.6 mph77%30.21 "HgN/A
8:50 AM57 °FScattered clouds.6 mph88%30.21 "Hg4 mi
8:20 AM55 °FScattered clouds.5 mph88%30.21 "Hg4 mi
7:50 AM55 °FScattered clouds.2 mph88%30.21 "Hg4 mi
7:20 AM52 °FScattered clouds.3 mph94%30.21 "Hg5 mi
6:50 AM52 °FScattered clouds.2 mph88%30.18 "Hg5 mi
6:20 AM52 °FPassing clouds.6 mph94%30.18 "Hg5 mi
5:50 AM52 °FPassing clouds.7 mph94%30.18 "Hg5 mi
5:20 AM52 °FPassing clouds.6 mph94%30.18 "Hg5 mi
4:50 AM54 °FPassing clouds.3 mph94%30.18 "Hg5 mi
4:20 AM54 °FPassing clouds.5 mph88%30.18 "Hg5 mi
3:50 AM54 °FPassing clouds.2 mph94%30.21 "Hg5 mi
3:20 AM54 °FPassing clouds.3 mph94%30.21 "Hg5 mi
2:50 AM54 °FPassing clouds.2 mph94%30.18 "Hg5 mi
2:20 AM54 °FPassing clouds.3 mph94%30.18 "Hg5 mi
1:50 AM54 °FPassing clouds.3 mph94%30.18 "Hg5 mi
1:20 AM54 °FPassing clouds.5 mph94%30.18 "Hg5 mi
12:50 AM54 °FPassing clouds.6 mph94%30.18 "Hg5 mi
12:20 AM54 °FPassing clouds.6 mph94%30.21 "Hg5 mi
11:50 PM
Nov 21
54 °FPassing clouds.5 mph94%30.21 "Hg5 mi
11:20 PM55 °FPassing clouds.6 mph88%30.21 "Hg5 mi
10:50 PM54 °FPassing clouds.5 mph94%30.21 "HgN/A
10:20 PM55 °FPassing clouds.3 mph94%30.21 "HgN/A
9:50 PM55 °FPassing clouds.3 mph88%30.21 "HgN/A
9:20 PM57 °FPassing clouds.5 mph88%30.18 "HgN/A
8:50 PM61 °FPassing clouds.3 mph77%30.18 "HgN/A
8:20 PM61 °FPassing clouds.5 mph77%30.18 "HgN/A
7:50 PM61 °FPassing clouds.5 mph77%30.18 "HgN/A
7:20 PM61 °FClear.6 mph77%30.18 "Hg10 mi
6:50 PM61 °FClear.7 mph77%30.18 "Hg10 mi
6:20 PM59 °FClear.6 mph82%30.15 "Hg10 mi
5:50 PM61 °FClear.6 mph77%30.15 "Hg10 mi
5:20 PM59 °FClear.6 mph77%30.18 "Hg10 mi
4:50 PM59 °FClear.6 mph82%30.15 "Hg10 mi
4:20 PM61 °FSunny.6 mph77%30.15 "Hg10 mi
Weather by CustomWeather, © 2014

See weather overviewHow to use our weather pages